Time,TemperatureF,DewpointF,PressureIn,WindDirection,WindDirectionDegrees,WindSpeedMPH,WindSpeedGustMPH,Humidity,HourlyPrecipIn,Conditions,Clouds,dailyrainin,SoftwareType,DateUTC
2013-01-07 00:00:00,37.8,30.2,29.59,NW,315,0.0,1.8,74,0.00,,,0.00,WUHU216HW,2013-01-07 05:00:00,
2013-01-07 00:01:00,37.8,30.2,29.59,NW,315,0.0,1.8,74,0.00,,,0.00,WUHU216HW,2013-01-07 05:01:00,
2013-01-07 00:06:00,37.8,30.2,29.59,ENE,68,1.1,1.8,74,0.00,,,0.00,WUHU216HW,2013-01-07 05:06:00,
2013-01-07 00:11:00,37.4,30.2,29.59,WSW,248,0.4,3.4,75,0.00,,,0.00,WUHU216HW,2013-01-07 05:11:00,
2013-01-07 00:16:00,37.4,30.2,29.59,North,0,0.0,3.4,75,0.00,,,0.00,WUHU216HW,2013-01-07 05:16:00,
2013-01-07 00:21:00,37.4,30.2,29.60,WNW,293,0.7,0.9,75,0.00,,,0.00,WUHU216HW,2013-01-07 05:21:00,
2013-01-07 00:26:00,37.4,30.9,29.59,NW,315,0.7,2.2,77,0.00,,,0.00,WUHU216HW,2013-01-07 05:26:00,
2013-01-07 00:31:00,37.8,30.9,29.59,NNW,338,2.5,4.5,76,0.00,,,0.00,WUHU216HW,2013-01-07 05:31:00,
2013-01-07 00:36:00,37.8,31.2,29.59,NW,315,1.1,4.5,77,0.00,,,0.00,WUHU216HW,2013-01-07 05:36:00,
2013-01-07 00:41:00,38.0,31.4,29.60,NNW,338,0.4,4.5,77,0.00,,,0.00,WUHU216HW,2013-01-07 05:41:00,
2013-01-07 00:46:00,37.8,30.6,29.60,SE,135,2.0,3.6,75,0.00,,,0.00,WUHU216HW,2013-01-07 05:46:00,
2013-01-07 00:51:00,37.8,30.6,29.61,ENE,68,2.2,3.6,75,0.00,,,0.00,WUHU216HW,2013-01-07 05:51:00,
2013-01-07 00:56:00,37.8,30.2,29.61,ESE,113,0.0,2.2,74,0.00,,,0.00,WUHU216HW,2013-01-07 05:56:00,
2013-01-07 01:01:00,37.8,30.2,29.61,NNW,338,0.4,2.2,74,0.00,,,0.00,WUHU216HW,2013-01-07 06:01:00,
2013-01-07 01:06:00,38.2,31.0,29.61,NNW,338,0.7,2.2,75,0.00,,,0.00,WUHU216HW,2013-01-07 06:06:00,
2013-01-07 01:11:00,38.9,31.2,29.61,NW,315,1.6,2.2,74,0.00,,,0.00,WUHU216HW,2013-01-07 06:11:00,
2013-01-07 01:16:00,39.4,31.2,29.61,NNW,338,1.1,2.2,72,0.00,,,0.00,WUHU216HW,2013-01-07 06:16:00,
2013-01-07 01:21:00,39.8,31.2,29.61,NW,315,2.2,2.2,71,0.00,,,0.00,WUHU216HW,2013-01-07 06:21:00,
2013-01-07 01:26:00,40.0,31.0,29.61,NW,315,3.6,3.8,70,0.00,,,0.00,WUHU216HW,2013-01-07 06:26:00,
2013-01-07 01:31:00,40.0,31.0,29.61,NNW,338,3.4,4.9,70,0.00,,,0.00,WUHU216HW,2013-01-07 06:31:00,
2013-01-07 01:36:00,40.0,31.0,29.62,NW,315,11.2,11.2,70,0.00,,,0.00,WUHU216HW,2013-01-07 06:36:00,
2013-01-07 01:41:00,40.0,30.6,29.62,NW,315,3.6,11.2,69,0.00,,,0.00,WUHU216HW,2013-01-07 06:41:00,
2013-01-07 01:46:00,40.1,30.0,29.62,WNW,293,5.4,12.8,67,0.00,,,0.00,WUHU216HW,2013-01-07 06:46:00,
2013-01-07 01:51:00,40.1,30.0,29.63,WNW,293,7.4,12.8,67,0.00,,,0.00,WUHU216HW,2013-01-07 06:51:00,
2013-01-07 01:56:00,40.1,30.4,29.63,NW,315,1.8,7.4,68,0.00,,,0.00,WUHU216HW,2013-01-07 06:56:00,
2013-01-07 02:01:00,40.1,30.4,29.63,WNW,293,4.0,4.7,68,0.00,,,0.00,WUHU216HW,2013-01-07 07:01:00,
2013-01-07 02:06:00,40.0,30.3,29.63,North,0,3.4,5.8,68,0.00,,,0.00,WUHU216HW,2013-01-07 07:06:00,
2013-01-07 02:11:00,40.3,30.2,29.63,NW,315,4.7,5.8,67,0.00,,,0.00,WUHU216HW,2013-01-07 07:11:00,
2013-01-07 02:16:00,40.1,30.0,29.63,NNW,338,8.7,8.7,67,0.00,,,0.00,WUHU216HW,2013-01-07 07:16:00,
2013-01-07 02:21:00,40.1,30.0,29.64,NW,315,2.5,8.7,67,0.00,,,0.00,WUHU216HW,2013-01-07 07:21:00,
2013-01-07 02:26:00,40.1,30.0,29.64,NNW,338,3.1,6.3,67,0.00,,,0.00,WUHU216HW,2013-01-07 07:26:00,
2013-01-07 02:31:00,40.1,30.0,29.64,NW,315,2.7,6.3,67,0.00,,,0.00,WUHU216HW,2013-01-07 07:31:00,
2013-01-07 02:36:00,39.8,28.5,29.64,NNW,338,1.8,4.0,64,0.00,,,0.00,WUHU216HW,2013-01-07 07:36:00,
2013-01-07 02:41:00,39.6,29.4,29.64,NW,315,1.8,4.0,67,0.00,,,0.00,WUHU216HW,2013-01-07 07:41:00,
2013-01-07 02:46:00,39.2,29.1,29.64,NW,315,4.0,4.3,67,0.00,,,0.00,WUHU216HW,2013-01-07 07:46:00,
2013-01-07 02:51:00,39.2,29.1,29.65,NW,315,4.9,6.9,67,0.00,,,0.00,WUHU216HW,2013-01-07 07:51:00,
2013-01-07 02:56:00,39.2,28.7,29.66,WNW,293,6.5,6.9,66,0.00,,,0.00,WUHU216HW,2013-01-07 07:56:00,
2013-01-07 03:01:00,39.4,29.3,29.66,West,270,2.5,10.5,67,0.00,,,0.00,WUHU216HW,2013-01-07 08:01:00,
2013-01-07 03:06:00,39.4,28.5,29.66,NW,315,1.8,10.5,65,0.00,,,0.00,WUHU216HW,2013-01-07 08:06:00,
2013-01-07 03:11:00,39.4,28.9,29.66,North,0,2.0,3.4,66,0.00,,,0.00,WUHU216HW,2013-01-07 08:11:00,
2013-01-07 03:16:00,39.2,28.7,29.66,North,0,3.6,8.7,66,0.00,,,0.00,WUHU216HW,2013-01-07 08:16:00,
2013-01-07 03:21:00,39.2,29.1,29.66,NNW,338,1.6,8.7,67,0.00,,,0.00,WUHU216HW,2013-01-07 08:21:00,
2013-01-07 03:26:00,39.4,28.5,29.66,NNE,23,6.7,8.9,65,0.00,,,0.00,WUHU216HW,2013-01-07 08:26:00,
2013-01-07 03:31:00,39.4,28.9,29.66,NNW,338,0.7,8.9,66,0.00,,,0.00,WUHU216HW,2013-01-07 08:31:00,
2013-01-07 03:36:00,39.4,28.5,29.66,NE,45,6.3,6.7,65,0.00,,,0.00,WUHU216HW,2013-01-07 08:36:00,
2013-01-07 03:41:00,39.2,29.1,29.66,North,0,1.8,7.2,67,0.00,,,0.00,WUHU216HW,2013-01-07 08:41:00,
2013-01-07 03:46:00,39.2,28.7,29.67,North,0,2.5,7.2,66,0.00,,,0.00,WUHU216HW,2013-01-07 08:46:00,
2013-01-07 03:51:00,39.2,29.1,29.67,NNW,338,1.1,2.5,67,0.00,,,0.00,WUHU216HW,2013-01-07 08:51:00,
2013-01-07 03:56:00,39.2,29.1,29.67,NNW,338,2.5,2.5,67,0.00,,,0.00,WUHU216HW,2013-01-07 08:56:00,
2013-01-07 04:01:00,39.2,29.1,29.67,NW,315,1.1,4.0,67,0.00,,,0.00,WUHU216HW,2013-01-07 09:01:00,
2013-01-07 04:06:00,39.2,29.1,29.67,NNW,338,2.2,4.0,67,0.00,,,0.00,WUHU216HW,2013-01-07 09:06:00,
2013-01-07 04:11:00,39.2,29.1,29.67,NW,315,3.4,3.4,67,0.00,,,0.00,WUHU216HW,2013-01-07 09:11:00,
2013-01-07 04:16:00,39.1,29.4,29.67,NW,315,0.7,4.0,68,0.00,,,0.00,WUHU216HW,2013-01-07 09:16:00,
2013-01-07 04:21:00,38.7,29.0,29.67,NW,315,4.0,4.0,68,0.00,,,0.00,WUHU216HW,2013-01-07 09:21:00,
2013-01-07 04:26:00,38.5,28.8,29.67,NNW,338,1.1,4.7,68,0.00,,,0.00,WUHU216HW,2013-01-07 09:26:00,
2013-01-07 04:31:00,38.5,28.4,29.67,NW,315,0.4,4.7,67,0.00,,,0.00,WUHU216HW,2013-01-07 09:31:00,
2013-01-07 04:36:00,38.3,28.3,29.68,NE,45,3.4,3.4,67,0.00,,,0.00,WUHU216HW,2013-01-07 09:36:00,
2013-01-07 04:41:00,38.3,29.1,29.68,NW,315,2.2,3.4,69,0.00,,,0.00,WUHU216HW,2013-01-07 09:41:00,
2013-01-07 04:46:00,38.3,28.7,29.68,NNE,23,1.6,3.4,68,0.00,,,0.00,WUHU216HW,2013-01-07 09:46:00,
2013-01-07 04:51:00,38.3,28.7,29.69,NW,315,1.8,7.2,68,0.00,,,0.00,WUHU216HW,2013-01-07 09:51:00,
2013-01-07 04:56:00,38.5,28.4,29.68,North,0,5.8,12.3,67,0.00,,,0.00,WUHU216HW,2013-01-07 09:56:00,
2013-01-07 05:01:00,38.5,27.7,29.68,North,0,1.8,12.3,65,0.00,,,0.00,WUHU216HW,2013-01-07 10:01:00,
2013-01-07 05:06:00,38.7,27.9,29.68,NW,315,2.2,9.6,65,0.00,,,0.00,WUHU216HW,2013-01-07 10:06:00,
2013-01-07 05:11:00,38.5,27.7,29.69,NNW,338,1.6,8.3,65,0.00,,,0.00,WUHU216HW,2013-01-07 10:11:00,
2013-01-07 05:16:00,38.5,28.4,29.70,NW,315,0.4,3.8,67,0.00,,,0.00,WUHU216HW,2013-01-07 10:16:00,
2013-01-07 05:21:00,38.2,28.2,29.70,NNW,338,2.5,3.8,67,0.00,,,0.00,WUHU216HW,2013-01-07 10:21:00,
2013-01-07 05:26:00,38.3,28.7,29.70,North,0,3.6,9.2,68,0.00,,,0.00,WUHU216HW,2013-01-07 10:26:00,
2013-01-07 05:31:00,38.3,28.7,29.70,NW,315,6.3,9.2,68,0.00,,,0.00,WUHU216HW,2013-01-07 10:31:00,
2013-01-07 05:36:00,38.3,28.7,29.70,NNW,338,4.0,6.3,68,0.00,,,0.00,WUHU216HW,2013-01-07 10:36:00,
2013-01-07 05:41:00,38.2,28.5,29.70,North,0,2.9,4.0,68,0.00,,,0.00,WUHU216HW,2013-01-07 10:41:00,
2013-01-07 05:46:00,38.0,28.4,29.71,NW,315,3.6,4.0,68,0.00,,,0.00,WUHU216HW,2013-01-07 10:46:00,
2013-01-07 05:51:00,38.0,28.7,29.71,NW,315,2.5,4.0,69,0.00,,,0.00,WUHU216HW,2013-01-07 10:51:00,
2013-01-07 05:56:00,37.8,28.5,29.72,NW,315,4.7,4.7,69,0.00,,,0.00,WUHU216HW,2013-01-07 10:56:00,
2013-01-07 06:01:00,37.8,28.2,29.72,NW,315,2.5,6.9,68,0.00,,,0.00,WUHU216HW,2013-01-07 11:01:00,
2013-01-07 06:06:00,37.8,29.0,29.72,NNW,338,1.1,6.9,70,0.00,,,0.00,WUHU216HW,2013-01-07 11:06:00,
2013-01-07 06:11:00,37.4,28.6,29.72,NW,315,4.0,4.0,70,0.00,,,0.00,WUHU216HW,2013-01-07 11:11:00,
2013-01-07 06:16:00,37.4,28.6,29.73,NW,315,2.7,5.1,70,0.00,,,0.00,WUHU216HW,2013-01-07 11:16:00,
2013-01-07 06:21:00,37.4,28.6,29.73,NW,315,2.9,5.1,70,0.00,,,0.00,WUHU216HW,2013-01-07 11:21:00,
2013-01-07 06:26:00,37.4,28.6,29.74,NW,315,4.5,4.5,70,0.00,,,0.00,WUHU216HW,2013-01-07 11:26:00,
2013-01-07 06:31:00,37.4,28.6,29.74,NW,315,1.8,6.3,70,0.00,,,0.00,WUHU216HW,2013-01-07 11:31:00,
2013-01-07 06:36:00,37.3,28.4,29.74,NW,315,1.8,4.0,70,0.00,,,0.00,WUHU216HW,2013-01-07 11:36:00,
2013-01-07 06:41:00,37.1,28.3,29.74,NW,315,5.4,6.5,70,0.00,,,0.00,WUHU216HW,2013-01-07 11:41:00,
2013-01-07 06:46:00,37.1,28.6,29.75,NW,315,3.1,6.5,71,0.00,,,0.00,WUHU216HW,2013-01-07 11:46:00,
2013-01-07 06:51:00,37.1,28.6,29.75,NW,315,2.9,5.8,71,0.00,,,0.00,WUHU216HW,2013-01-07 11:51:00,
2013-01-07 06:56:00,37.1,28.6,29.75,WNW,293,2.5,5.1,71,0.00,,,0.00,WUHU216HW,2013-01-07 11:56:00,
2013-01-07 07:01:00,37.1,28.3,29.76,WNW,293,4.3,6.7,70,0.00,,,0.00,WUHU216HW,2013-01-07 12:01:00,
2013-01-07 07:06:00,37.1,28.6,29.76,NW,315,4.3,6.7,71,0.00,,,0.00,WUHU216HW,2013-01-07 12:06:00,
2013-01-07 07:11:00,37.1,28.6,29.76,NW,315,0.7,6.3,71,0.00,,,0.00,WUHU216HW,2013-01-07 12:11:00,
2013-01-07 07:16:00,37.1,28.6,29.77,NW,315,2.9,4.7,71,0.00,,,0.00,WUHU216HW,2013-01-07 12:16:00,
2013-01-07 07:21:00,36.9,28.5,29.77,NNW,338,1.3,2.9,71,0.00,,,0.00,WUHU216HW,2013-01-07 12:21:00,
2013-01-07 07:26:00,36.9,28.5,29.78,NW,315,0.4,2.5,71,0.00,,,0.00,WUHU216HW,2013-01-07 12:26:00,
2013-01-07 07:31:00,36.9,28.5,29.79,NNW,338,1.1,1.1,71,0.00,,,0.00,WUHU216HW,2013-01-07 12:31:00,
2013-01-07 07:36:00,36.7,28.3,29.79,NW,315,0.4,1.8,71,0.00,,,0.00,WUHU216HW,2013-01-07 12:36:00,
2013-01-07 07:41:00,36.9,28.5,29.79,NW,315,2.2,2.7,71,0.00,,,0.00,WUHU216HW,2013-01-07 12:41:00,
2013-01-07 07:46:00,36.9,28.5,29.79,NW,315,2.0,2.7,71,0.00,,,0.00,WUHU216HW,2013-01-07 12:46:00,
2013-01-07 07:51:00,37.1,28.9,29.79,NW,315,1.6,2.2,72,0.00,,,0.00,WUHU216HW,2013-01-07 12:51:00,
2013-01-07 07:56:00,37.1,28.9,29.79,NNW,338,0.7,1.8,72,0.00,,,0.00,WUHU216HW,2013-01-07 12:56:00,
2013-01-07 08:01:00,37.1,28.9,29.79,NW,315,1.1,1.1,72,0.00,,,0.00,WUHU216HW,2013-01-07 13:01:00,
2013-01-07 08:06:00,37.1,29.3,29.80,NW,315,0.4,1.1,73,0.00,,,0.00,WUHU216HW,2013-01-07 13:06:00,
2013-01-07 08:11:00,37.1,29.3,29.80,NW,315,1.1,2.2,73,0.00,,,0.00,WUHU216HW,2013-01-07 13:11:00,
2013-01-07 08:16:00,37.1,28.9,29.80,NNW,338,1.8,2.9,72,0.00,,,0.00,WUHU216HW,2013-01-07 13:16:00,
2013-01-07 08:21:00,37.1,28.9,29.80,NW,315,1.1,3.4,72,0.00,,,0.00,WUHU216HW,2013-01-07 13:21:00,
2013-01-07 08:26:00,37.1,28.9,29.81,NW,315,1.1,3.4,72,0.00,,,0.00,WUHU216HW,2013-01-07 13:26:00,
2013-01-07 08:31:00,37.3,28.8,29.81,NW,315,6.5,7.6,71,0.00,,,0.00,WUHU216HW,2013-01-07 13:31:00,
2013-01-07 08:36:00,37.1,28.6,29.81,NW,315,2.5,7.6,71,0.00,,,0.00,WUHU216HW,2013-01-07 13:36:00,
2013-01-07 08:41:00,37.1,28.6,29.81,NNW,338,0.9,4.0,71,0.00,,,0.00,WUHU216HW,2013-01-07 13:41:00,
2013-01-07 08:46:00,37.1,28.9,29.82,NW,315,2.5,4.0,72,0.00,,,0.00,WUHU216HW,2013-01-07 13:46:00,
2013-01-07 08:51:00,37.1,28.6,29.83,NW,315,2.2,2.5,71,0.00,,,0.00,WUHU216HW,2013-01-07 13:51:00,
2013-01-07 08:56:00,37.3,29.1,29.83,NW,315,1.3,3.4,72,0.00,,,0.00,WUHU216HW,2013-01-07 13:56:00,
2013-01-07 09:01:00,37.4,29.0,29.83,NNE,23,2.2,3.4,71,0.00,,,0.00,WUHU216HW,2013-01-07 14:01:00,
2013-01-07 09:06:00,37.4,29.0,29.84,NNW,338,0.9,3.4,71,0.00,,,0.00,WUHU216HW,2013-01-07 14:06:00,
2013-01-07 09:11:00,37.4,29.0,29.84,NW,315,2.2,3.4,71,0.00,,,0.00,WUHU216HW,2013-01-07 14:11:00,
2013-01-07 09:16:00,37.4,29.0,29.84,NW,315,0.7,2.5,71,0.00,,,0.00,WUHU216HW,2013-01-07 14:16:00,
2013-01-07 09:21:00,37.6,29.1,29.84,NW,315,1.8,6.5,71,0.00,,,0.00,WUHU216HW,2013-01-07 14:21:00,
2013-01-07 09:26:00,37.6,29.1,29.85,West,270,1.6,6.5,71,0.00,,,0.00,WUHU216HW,2013-01-07 14:26:00,
2013-01-07 09:31:00,37.6,28.8,29.85,NW,315,2.2,5.8,70,0.00,,,0.00,WUHU216HW,2013-01-07 14:31:00,
2013-01-07 09:36:00,37.6,29.1,29.84,NNW,338,1.1,2.9,71,0.00,,,0.00,WUHU216HW,2013-01-07 14:36:00,
2013-01-07 09:41:00,37.8,29.0,29.85,NW,315,2.2,6.3,70,0.00,,,0.00,WUHU216HW,2013-01-07 14:41:00,
2013-01-07 09:46:00,37.8,29.0,29.86,NW,315,3.4,6.3,70,0.00,,,0.00,WUHU216HW,2013-01-07 14:46:00,
2013-01-07 09:51:00,38.2,28.9,29.86,NW,315,4.0,5.4,69,0.00,,,0.00,WUHU216HW,2013-01-07 14:51:00,
2013-01-07 09:56:00,38.3,29.1,29.86,NW,315,2.5,6.3,69,0.00,,,0.00,WUHU216HW,2013-01-07 14:56:00,
2013-01-07 10:01:00,38.3,28.7,29.87,NW,315,0.4,6.3,68,0.00,,,0.00,WUHU216HW,2013-01-07 15:01:00,
2013-01-07 10:06:00,38.2,27.4,29.87,NNW,338,1.8,4.0,65,0.00,,,0.00,WUHU216HW,2013-01-07 15:06:00,
2013-01-07 10:11:00,38.0,28.0,29.87,NNW,338,2.9,4.0,67,0.00,,,0.00,WUHU216HW,2013-01-07 15:11:00,
2013-01-07 10:16:00,38.2,28.5,29.87,WNW,293,4.7,5.4,68,0.00,,,0.00,WUHU216HW,2013-01-07 15:16:00,
2013-01-07 10:21:00,38.5,28.8,29.88,West,270,6.0,6.0,68,0.00,,,0.00,WUHU216HW,2013-01-07 15:21:00,
2013-01-07 10:26:00,38.7,28.3,29.88,NW,315,1.8,6.0,66,0.00,,,0.00,WUHU216HW,2013-01-07 15:26:00,
2013-01-07 10:31:00,38.5,27.7,29.88,NNW,338,1.8,6.0,65,0.00,,,0.00,WUHU216HW,2013-01-07 15:31:00,
2013-01-07 10:36:00,38.5,28.4,29.89,NW,315,2.7,3.4,67,0.00,,,0.00,WUHU216HW,2013-01-07 15:36:00,
2013-01-07 10:41:00,38.5,28.1,29.89,North,0,2.0,6.0,66,0.00,,,0.00,WUHU216HW,2013-01-07 15:41:00,
2013-01-07 10:46:00,38.7,28.3,29.89,NNW,338,0.7,6.0,66,0.00,,,0.00,WUHU216HW,2013-01-07 15:46:00,
2013-01-07 10:51:00,39.2,29.1,29.88,West,270,6.7,6.7,67,0.00,,,0.00,WUHU216HW,2013-01-07 15:51:00,
2013-01-07 10:56:00,39.4,29.3,29.88,NNW,338,2.0,6.7,67,0.00,,,0.00,WUHU216HW,2013-01-07 15:56:00,
2013-01-07 11:01:00,39.2,28.7,29.88,NW,315,1.8,6.5,66,0.00,,,0.00,WUHU216HW,2013-01-07 16:01:00,
2013-01-07 11:06:00,39.1,28.2,29.88,NNE,23,4.0,4.0,65,0.00,,,0.00,WUHU216HW,2013-01-07 16:06:00,
2013-01-07 11:11:00,39.1,28.5,29.88,NW,315,0.7,4.0,66,0.00,,,0.00,WUHU216HW,2013-01-07 16:11:00,
2013-01-07 11:16:00,39.4,28.9,29.88,NW,315,2.7,4.0,66,0.00,,,0.00,WUHU216HW,2013-01-07 16:16:00,
2013-01-07 11:21:00,39.4,29.3,29.88,West,270,2.2,3.8,67,0.00,,,0.00,WUHU216HW,2013-01-07 16:21:00,
2013-01-07 11:26:00,40.5,30.3,29.88,SW,225,2.7,5.4,67,0.00,,,0.00,WUHU216HW,2013-01-07 16:26:00,
2013-01-07 11:31:00,41.0,30.5,29.88,NE,45,5.4,5.4,66,0.00,,,0.00,WUHU216HW,2013-01-07 16:31:00,
2013-01-07 11:36:00,41.4,30.2,29.87,North,0,4.5,5.4,64,0.00,,,0.00,WUHU216HW,2013-01-07 16:36:00,
2013-01-07 11:41:00,40.9,28.4,29.86,NE,45,1.1,6.3,61,0.00,,,0.00,WUHU216HW,2013-01-07 16:41:00,
2013-01-07 11:46:00,40.9,29.3,29.85,NNE,23,3.8,6.3,63,0.00,,,0.00,WUHU216HW,2013-01-07 16:46:00,
2013-01-07 11:51:00,40.7,29.1,29.85,North,0,2.7,4.7,63,0.00,,,0.00,WUHU216HW,2013-01-07 16:51:00,
2013-01-07 11:56:00,40.3,29.4,29.85,NNW,338,3.4,6.3,65,0.00,,,0.00,WUHU216HW,2013-01-07 16:56:00,
2013-01-07 12:01:00,40.5,28.9,29.85,NNW,338,1.1,6.3,63,0.00,,,0.00,WUHU216HW,2013-01-07 17:01:00,
2013-01-07 12:06:00,40.1,28.1,29.85,NE,45,5.6,5.6,62,0.00,,,0.00,WUHU216HW,2013-01-07 17:06:00,
2013-01-07 12:11:00,40.1,28.9,29.84,NE,45,1.8,5.6,64,0.00,,,0.00,WUHU216HW,2013-01-07 17:11:00,
2013-01-07 12:16:00,40.3,28.7,29.84,NNE,23,8.3,9.2,63,0.00,,,0.00,WUHU216HW,2013-01-07 17:16:00,
2013-01-07 12:21:00,40.1,28.5,29.83,NE,45,6.3,9.2,63,0.00,,,0.00,WUHU216HW,2013-01-07 17:21:00,
2013-01-07 12:26:00,40.3,29.1,29.84,ESE,113,2.0,6.9,64,0.00,,,0.00,WUHU216HW,2013-01-07 17:26:00,
2013-01-07 12:31:00,40.7,29.1,29.83,North,0,3.6,4.9,63,0.00,,,0.00,WUHU216HW,2013-01-07 17:31:00,
2013-01-07 12:36:00,40.5,28.9,29.84,NW,315,0.4,6.5,63,0.00,,,0.00,WUHU216HW,2013-01-07 17:36:00,
2013-01-07 12:41:00,40.5,28.9,29.83,WNW,293,2.9,6.5,63,0.00,,,0.00,WUHU216HW,2013-01-07 17:41:00,
2013-01-07 12:46:00,41.0,29.4,29.83,NNE,23,6.0,6.0,63,0.00,,,0.00,WUHU216HW,2013-01-07 17:46:00,
2013-01-07 12:51:00,41.0,28.6,29.83,NE,45,4.0,10.3,61,0.00,,,0.00,WUHU216HW,2013-01-07 17:51:00,
2013-01-07 12:56:00,40.7,29.1,29.82,NE,45,4.7,10.3,63,0.00,,,0.00,WUHU216HW,2013-01-07 17:56:00,
2013-01-07 13:01:00,40.9,28.8,29.83,ENE,68,5.4,9.8,62,0.00,,,0.00,WUHU216HW,2013-01-07 18:01:00,
2013-01-07 13:06:00,40.9,28.4,29.83,ENE,68,9.2,9.8,61,0.00,,,0.00,WUHU216HW,2013-01-07 18:06:00,
2013-01-07 13:11:00,40.9,28.4,29.83,East,90,2.7,9.2,61,0.00,,,0.00,WUHU216HW,2013-01-07 18:11:00,
2013-01-07 13:16:00,40.3,27.9,29.83,ENE,68,8.7,8.7,61,0.00,,,0.00,WUHU216HW,2013-01-07 18:16:00,
2013-01-07 13:21:00,40.7,28.6,29.83,ESE,113,1.1,8.7,62,0.00,,,0.00,WUHU216HW,2013-01-07 18:21:00,
2013-01-07 13:26:00,40.7,28.6,29.83,North,0,0.9,8.5,62,0.00,,,0.00,WUHU216HW,2013-01-07 18:26:00,
2013-01-07 13:31:00,40.9,28.8,29.82,NE,45,9.2,9.8,62,0.00,,,0.00,WUHU216HW,2013-01-07 18:31:00,
2013-01-07 13:36:00,40.9,28.4,29.83,ENE,68,2.2,9.8,61,0.00,,,0.00,WUHU216HW,2013-01-07 18:36:00,
2013-01-07 13:41:00,40.7,28.3,29.83,East,90,2.5,7.2,61,0.00,,,0.00,WUHU216HW,2013-01-07 18:41:00,
2013-01-07 13:46:00,40.7,28.6,29.82,NE,45,6.5,6.5,62,0.00,,,0.00,WUHU216HW,2013-01-07 18:46:00,
2013-01-07 13:51:00,40.7,28.6,29.82,ENE,68,6.5,7.4,62,0.00,,,0.00,WUHU216HW,2013-01-07 18:51:00,
2013-01-07 13:56:00,41.0,29.0,29.82,NE,45,2.5,7.4,62,0.00,,,0.00,WUHU216HW,2013-01-07 18:56:00,
2013-01-07 14:01:00,41.2,29.2,29.82,ENE,68,3.1,6.7,62,0.00,,,0.00,WUHU216HW,2013-01-07 19:01:00,
2013-01-07 14:06:00,41.0,29.0,29.82,ENE,68,2.0,6.7,62,0.00,,,0.00,WUHU216HW,2013-01-07 19:06:00,
2013-01-07 14:11:00,41.0,28.6,29.82,NE,45,4.7,4.7,61,0.00,,,0.00,WUHU216HW,2013-01-07 19:11:00,
2013-01-07 14:16:00,40.9,28.4,29.82,NW,315,0.4,4.7,61,0.00,,,0.00,WUHU216HW,2013-01-07 19:16:00,
2013-01-07 14:21:00,40.7,28.6,29.82,NE,45,2.5,4.7,62,0.00,,,0.00,WUHU216HW,2013-01-07 19:21:00,
2013-01-07 14:26:00,40.9,28.4,29.82,NNW,338,0.4,4.5,61,0.00,,,0.00,WUHU216HW,2013-01-07 19:26:00,
2013-01-07 14:31:00,40.7,28.3,29.82,North,0,0.4,4.5,61,0.00,,,0.00,WUHU216HW,2013-01-07 19:31:00,
2013-01-07 14:36:00,40.5,28.1,29.82,NNE,23,0.0,1.3,61,0.00,,,0.00,WUHU216HW,2013-01-07 19:36:00,
2013-01-07 14:41:00,40.5,28.4,29.82,East,90,1.8,1.8,62,0.00,,,0.00,WUHU216HW,2013-01-07 19:41:00,
2013-01-07 14:46:00,40.7,28.6,29.82,East,90,3.6,3.6,62,0.00,,,0.00,WUHU216HW,2013-01-07 19:46:00,
2013-01-07 14:51:00,40.9,28.8,29.82,East,90,1.8,3.6,62,0.00,,,0.00,WUHU216HW,2013-01-07 19:51:00,
2013-01-07 14:56:00,40.9,28.8,29.82,NW,315,2.2,4.3,62,0.00,,,0.00,WUHU216HW,2013-01-07 19:56:00,
2013-01-07 15:01:00,40.7,28.6,29.82,WSW,248,2.5,4.3,62,0.00,,,0.00,WUHU216HW,2013-01-07 20:01:00,
2013-01-07 15:06:00,40.7,29.1,29.82,WSW,248,2.7,2.7,63,0.00,,,0.00,WUHU216HW,2013-01-07 20:06:00,
2013-01-07 15:11:00,40.5,28.9,29.82,SSE,158,1.6,2.7,63,0.00,,,0.00,WUHU216HW,2013-01-07 20:11:00,
2013-01-07 15:16:00,40.5,28.9,29.82,SSW,203,2.0,2.2,63,0.00,,,0.00,WUHU216HW,2013-01-07 20:16:00,
2013-01-07 15:19:00,40.3,28.7,29.82,SW,225,0.4,2.2,63,0.00,,,0.00,WUHU216HW,2013-01-07 20:19:00,
2013-01-07 15:24:00,40.3,28.7,29.83,WNW,293,2.7,3.4,63,0.00,,,0.00,WUHU216HW,2013-01-07 20:24:00,
2013-01-07 15:29:00,40.1,28.9,29.82,West,270,2.5,3.4,64,0.00,,,0.00,WUHU216HW,2013-01-07 20:29:00,
2013-01-07 15:34:00,40.1,28.9,29.82,West,270,0.0,2.7,64,0.00,,,0.00,WUHU216HW,2013-01-07 20:34:00,
2013-01-07 15:39:00,40.0,28.7,29.82,West,270,0.2,2.5,64,0.00,,,0.00,WUHU216HW,2013-01-07 20:39:00,
2013-01-07 15:44:00,39.8,28.2,29.82,West,270,1.8,2.7,63,0.00,,,0.00,WUHU216HW,2013-01-07 20:44:00,
2013-01-07 15:49:00,39.6,28.4,29.83,SW,225,1.1,2.9,64,0.00,,,0.00,WUHU216HW,2013-01-07 20:49:00,
2013-01-07 15:54:00,39.4,28.2,29.82,West,270,1.8,2.9,64,0.00,,,0.00,WUHU216HW,2013-01-07 20:54:00,
2013-01-07 15:59:00,39.4,28.2,29.83,WSW,248,0.0,2.9,64,0.00,,,0.00,WUHU216HW,2013-01-07 20:59:00,
2013-01-07 16:04:00,39.2,27.6,29.82,NNW,338,0.7,3.1,63,0.00,,,0.00,WUHU216HW,2013-01-07 21:04:00,
2013-01-07 16:09:00,39.4,28.2,29.83,NNW,338,1.1,3.1,64,0.00,,,0.00,WUHU216HW,2013-01-07 21:09:00,
2013-01-07 16:14:00,39.6,28.0,29.82,North,0,0.4,1.1,63,0.00,,,0.00,WUHU216HW,2013-01-07 21:14:00,
2013-01-07 16:19:00,39.6,28.0,29.82,NNE,23,0.0,1.1,63,0.00,,,0.00,WUHU216HW,2013-01-07 21:19:00,
2013-01-07 16:24:00,39.2,27.6,29.82,NW,315,0.0,1.1,63,0.00,,,0.00,WUHU216HW,2013-01-07 21:24:00,
2013-01-07 16:29:00,39.1,27.5,29.82,North,0,1.3,1.3,63,0.00,,,0.00,WUHU216HW,2013-01-07 21:29:00,
2013-01-07 16:34:00,39.1,27.5,29.83,North,0,1.1,1.3,63,0.00,,,0.00,WUHU216HW,2013-01-07 21:34:00,
2013-01-07 16:39:00,39.1,27.5,29.82,North,0,0.7,1.3,63,0.00,,,0.00,WUHU216HW,2013-01-07 21:39:00,
2013-01-07 16:44:00,39.2,27.6,29.82,NE,45,0.4,0.7,63,0.00,,,0.00,WUHU216HW,2013-01-07 21:44:00,
2013-01-07 16:49:00,39.1,27.5,29.83,NE,45,0.0,0.4,63,0.00,,,0.00,WUHU216HW,2013-01-07 21:49:00,
2013-01-07 16:54:00,38.5,26.9,29.83,WNW,293,0.4,0.9,63,0.00,,,0.00,WUHU216HW,2013-01-07 21:54:00,
2013-01-07 16:59:00,38.0,26.5,29.83,WNW,293,0.4,0.9,63,0.00,,,0.00,WUHU216HW,2013-01-07 21:59:00,
2013-01-07 17:04:00,37.6,26.1,29.83,WNW,293,0.0,0.4,63,0.00,,,0.00,WUHU216HW,2013-01-07 22:04:00,
2013-01-07 17:09:00,37.1,26.0,29.83,WNW,293,0.0,0.0,64,0.00,,,0.00,WUHU216HW,2013-01-07 22:09:00,
2013-01-07 17:14:00,36.9,25.8,29.83,WNW,293,0.4,0.4,64,0.00,,,0.00,WUHU216HW,2013-01-07 22:14:00,
2013-01-07 17:19:00,36.7,25.7,29.83,WNW,293,0.0,0.4,64,0.00,,,0.00,WUHU216HW,2013-01-07 22:19:00,
2013-01-07 17:24:00,36.4,26.1,29.83,WNW,293,2.0,2.0,66,0.00,,,0.00,WUHU216HW,2013-01-07 22:24:00,
2013-01-07 17:29:00,36.2,26.3,29.83,NW,315,0.4,2.2,67,0.00,,,0.00,WUHU216HW,2013-01-07 22:29:00,
2013-01-07 17:34:00,35.8,25.9,29.84,North,0,0.0,2.2,67,0.00,,,0.00,WUHU216HW,2013-01-07 22:34:00,
2013-01-07 17:39:00,35.5,25.9,29.84,WNW,293,0.0,0.4,68,0.00,,,0.00,WUHU216HW,2013-01-07 22:39:00,
2013-01-07 17:44:00,35.1,25.9,29.83,NW,315,1.1,1.8,69,0.00,,,0.00,WUHU216HW,2013-01-07 22:44:00,
2013-01-07 17:49:00,34.7,25.6,29.84,NW,315,0.0,1.8,69,0.00,,,0.00,WUHU216HW,2013-01-07 22:49:00,
2013-01-07 17:54:00,34.0,24.8,29.84,NNW,338,0.9,0.9,69,0.00,,,0.00,WUHU216HW,2013-01-07 22:54:00,
2013-01-07 17:59:00,33.7,24.8,29.83,NNW,338,0.9,1.1,70,0.00,,,0.00,WUHU216HW,2013-01-07 22:59:00,
2013-01-07 18:04:00,33.5,24.7,29.83,NNW,338,1.3,1.8,70,0.00,,,0.00,WUHU216HW,2013-01-07 23:04:00,
2013-01-07 18:09:00,33.1,24.7,29.83,NW,315,1.1,1.8,71,0.00,,,0.00,WUHU216HW,2013-01-07 23:09:00,
2013-01-07 18:14:00,32.9,24.8,29.83,NW,315,0.0,1.8,72,0.00,,,0.00,WUHU216HW,2013-01-07 23:14:00,
2013-01-07 18:19:00,32.8,24.4,29.84,ESE,113,0.0,1.8,71,0.00,,,0.00,WUHU216HW,2013-01-07 23:19:00,
2013-01-07 18:24:00,32.6,24.2,29.84,ESE,113,0.0,0.9,71,0.00,,,0.00,WUHU216HW,2013-01-07 23:24:00,
2013-01-07 18:29:00,32.2,24.6,29.84,SE,135,0.7,1.8,73,0.00,,,0.00,WUHU216HW,2013-01-07 23:29:00,
2013-01-07 18:34:00,32.0,24.4,29.84,SE,135,0.0,1.8,73,0.00,,,0.00,WUHU216HW,2013-01-07 23:34:00,
2013-01-07 18:39:00,31.3,23.7,29.84,West,270,1.8,1.8,73,0.00,,,0.00,WUHU216HW,2013-01-07 23:39:00,
2013-01-07 18:44:00,31.1,24.1,29.84,West,270,2.2,2.2,75,0.00,,,0.00,WUHU216HW,2013-01-07 23:44:00,
2013-01-07 18:49:00,31.1,24.5,29.84,West,270,3.1,3.1,76,0.00,,,0.00,WUHU216HW,2013-01-07 23:49:00,
2013-01-07 18:54:00,31.1,24.5,29.84,West,270,1.1,3.1,76,0.00,,,0.00,WUHU216HW,2013-01-07 23:54:00,
2013-01-07 18:59:00,31.0,24.3,29.84,ESE,113,1.6,2.7,76,0.00,,,0.00,WUHU216HW,2013-01-07 23:59:00,
2013-01-07 19:04:00,31.0,24.3,29.84,WSW,248,0.0,1.8,76,0.00,,,0.00,WUHU216HW,2013-01-08 00:04:00,
2013-01-07 19:09:00,30.4,23.8,29.85,South,180,0.4,1.8,76,0.00,,,0.00,WUHU216HW,2013-01-08 00:09:00,
2013-01-07 19:14:00,30.2,23.9,29.85,SE,135,0.7,1.1,77,0.00,,,0.00,WUHU216HW,2013-01-08 00:14:00,
2013-01-07 19:19:00,30.1,23.7,29.85,ESE,113,0.0,1.1,77,0.00,,,0.00,WUHU216HW,2013-01-08 00:19:00,
2013-01-07 19:24:00,29.3,22.7,29.85,ESE,113,0.0,0.7,76,0.00,,,0.00,WUHU216HW,2013-01-08 00:24:00,
2013-01-07 19:29:00,28.8,22.5,29.85,ESE,113,0.0,0.4,77,0.00,,,0.00,WUHU216HW,2013-01-08 00:29:00,
2013-01-07 19:34:00,28.8,22.8,29.85,SSW,203,0.0,0.4,78,0.00,,,0.00,WUHU216HW,2013-01-08 00:34:00,
2013-01-07 19:39:00,28.6,22.6,29.85,SSW,203,1.1,1.1,78,0.00,,,0.00,WUHU216HW,2013-01-08 00:39:00,
2013-01-07 19:44:00,28.3,22.6,29.84,West,270,1.8,1.8,79,0.00,,,0.00,WUHU216HW,2013-01-08 00:44:00,
2013-01-07 19:49:00,28.3,22.6,29.84,WNW,293,1.3,1.8,79,0.00,,,0.00,WUHU216HW,2013-01-08 00:49:00,
2013-01-07 19:54:00,28.4,23.0,29.84,NW,315,0.4,1.3,80,0.00,,,0.00,WUHU216HW,2013-01-08 00:54:00,
2013-01-07 19:59:00,28.8,23.4,29.84,ESE,113,0.4,1.3,80,0.00,,,0.00,WUHU216HW,2013-01-08 00:59:00,
2013-01-07 20:04:00,28.6,23.0,29.84,East,90,1.1,1.1,79,0.00,,,0.00,WUHU216HW,2013-01-08 01:04:00,
2013-01-07 20:09:00,28.3,22.6,29.84,ESE,113,0.0,1.1,79,0.00,,,0.00,WUHU216HW,2013-01-08 01:09:00,
2013-01-07 20:14:00,28.1,22.7,29.84,NW,315,0.9,0.9,80,0.00,,,0.00,WUHU216HW,2013-01-08 01:14:00,
2013-01-07 20:19:00,27.9,22.5,29.84,West,270,1.8,1.8,80,0.00,,,0.00,WUHU216HW,2013-01-08 01:19:00,
2013-01-07 20:24:00,27.7,22.3,29.84,West,270,1.3,1.8,80,0.00,,,0.00,WUHU216HW,2013-01-08 01:24:00,
2013-01-07 20:29:00,27.7,22.3,29.84,WSW,248,0.7,1.3,80,0.00,,,0.00,WUHU216HW,2013-01-08 01:29:00,
2013-01-07 20:34:00,27.7,22.3,29.84,West,270,1.8,1.8,80,0.00,,,0.00,WUHU216HW,2013-01-08 01:34:00,
2013-01-07 20:39:00,27.7,22.6,29.84,ESE,113,0.4,1.8,81,0.00,,,0.00,WUHU216HW,2013-01-08 01:39:00,
2013-01-07 20:44:00,27.5,22.1,29.84,ESE,113,0.0,0.9,80,0.00,,,0.00,WUHU216HW,2013-01-08 01:44:00,
2013-01-07 20:49:00,27.5,22.4,29.84,ESE,113,0.0,0.4,81,0.00,,,0.00,WUHU216HW,2013-01-08 01:49:00,
2013-01-07 20:54:00,27.0,21.6,29.84,ESE,113,0.0,0.7,80,0.00,,,0.00,WUHU216HW,2013-01-08 01:54:00,
2013-01-07 20:59:00,26.8,21.7,29.84,North,0,0.4,0.7,81,0.00,,,0.00,WUHU216HW,2013-01-08 01:59:00,
2013-01-07 21:04:00,26.3,21.3,29.84,NNE,23,0.0,0.4,81,0.00,,,0.00,WUHU216HW,2013-01-08 02:04:00,
2013-01-07 21:09:00,26.3,21.5,29.84,ESE,113,0.0,0.4,82,0.00,,,0.00,WUHU216HW,2013-01-08 02:09:00,
2013-01-07 21:14:00,26.3,21.5,29.84,ESE,113,0.0,0.4,82,0.00,,,0.00,WUHU216HW,2013-01-08 02:14:00,
2013-01-07 21:19:00,26.5,22.0,29.84,West,270,1.1,1.1,83,0.00,,,0.00,WUHU216HW,2013-01-08 02:19:00,
2013-01-07 21:24:00,26.8,22.3,29.84,West,270,1.3,1.3,83,0.00,,,0.00,WUHU216HW,2013-01-08 02:24:00,
2013-01-07 21:29:00,26.8,22.3,29.84,WSW,248,0.9,1.8,83,0.00,,,0.00,WUHU216HW,2013-01-08 02:29:00,
2013-01-07 21:34:00,26.8,22.3,29.83,WSW,248,0.0,1.8,83,0.00,,,0.00,WUHU216HW,2013-01-08 02:34:00,
2013-01-07 21:39:00,27.0,22.5,29.83,WSW,248,0.0,1.8,83,0.00,,,0.00,WUHU216HW,2013-01-08 02:39:00,
2013-01-07 21:44:00,27.0,22.5,29.83,SSW,203,0.0,0.0,83,0.00,,,0.00,WUHU216HW,2013-01-08 02:44:00,
2013-01-07 21:49:00,27.0,22.5,29.83,ESE,113,0.0,0.0,83,0.00,,,0.00,WUHU216HW,2013-01-08 02:49:00,
2013-01-07 21:54:00,26.5,21.7,29.83,ESE,113,0.0,0.0,82,0.00,,,0.00,WUHU216HW,2013-01-08 02:54:00,
2013-01-07 21:59:00,26.3,21.8,29.83,ESE,113,0.0,0.0,83,0.00,,,0.00,WUHU216HW,2013-01-08 02:59:00,
2013-01-07 22:04:00,26.5,22.0,29.82,ESE,113,0.0,0.0,83,0.00,,,0.00,WUHU216HW,2013-01-08 03:04:00,
2013-01-07 22:09:00,26.3,21.8,29.83,ESE,113,0.0,0.0,83,0.00,,,0.00,WUHU216HW,2013-01-08 03:09:00,
2013-01-07 22:14:00,25.9,21.2,29.83,ESE,113,0.0,0.0,82,0.00,,,0.00,WUHU216HW,2013-01-08 03:14:00,
2013-01-07 22:19:00,26.1,21.3,29.83,ESE,113,0.0,0.0,82,0.00,,,0.00,WUHU216HW,2013-01-08 03:19:00,
2013-01-07 22:24:00,26.1,21.3,29.83,WSW,248,0.9,0.9,82,0.00,,,0.00,WUHU216HW,2013-01-08 03:24:00,
2013-01-07 22:29:00,25.7,21.0,29.82,WSW,248,0.0,1.1,82,0.00,,,0.00,WUHU216HW,2013-01-08 03:29:00,
2013-01-07 22:34:00,25.6,20.8,29.82,ESE,113,0.4,1.1,82,0.00,,,0.00,WUHU216HW,2013-01-08 03:34:00,
2013-01-07 22:39:00,25.7,21.2,29.82,SE,135,0.0,1.1,83,0.00,,,0.00,WUHU216HW,2013-01-08 03:39:00,
2013-01-07 22:44:00,25.6,20.8,29.82,SE,135,0.0,0.0,82,0.00,,,0.00,WUHU216HW,2013-01-08 03:44:00,
2013-01-07 22:49:00,25.4,21.0,29.82,NW,315,0.0,0.7,83,0.00,,,0.00,WUHU216HW,2013-01-08 03:49:00,
2013-01-07 22:54:00,25.4,21.0,29.82,North,0,0.0,0.7,83,0.00,,,0.00,WUHU216HW,2013-01-08 03:54:00,
2013-01-07 22:59:00,24.8,20.2,29.81,North,0,0.0,0.0,82,0.00,,,0.00,WUHU216HW,2013-01-08 03:59:00,
2013-01-07 23:04:00,24.5,20.1,29.81,North,0,0.0,0.0,83,0.00,,,0.00,WUHU216HW,2013-01-08 04:04:00,
2013-01-07 23:09:00,24.3,20.2,29.82,North,0,0.0,0.0,84,0.00,,,0.00,WUHU216HW,2013-01-08 04:09:00,
2013-01-07 23:14:00,24.3,20.2,29.81,North,0,0.0,0.0,84,0.00,,,0.00,WUHU216HW,2013-01-08 04:14:00,
2013-01-07 23:19:00,24.1,20.0,29.81,ENE,68,0.7,0.7,84,0.00,,,0.00,WUHU216HW,2013-01-08 04:19:00,
2013-01-07 23:24:00,24.1,20.0,29.81,NNW,338,0.9,0.9,84,0.00,,,0.00,WUHU216HW,2013-01-08 04:24:00,
2013-01-07 23:29:00,24.7,20.8,29.81,North,0,0.2,1.6,85,0.00,,,0.00,WUHU216HW,2013-01-08 04:29:00,
2013-01-07 23:34:00,24.5,20.3,29.81,NNW,338,1.1,1.6,84,0.00,,,0.00,WUHU216HW,2013-01-08 04:34:00,
2013-01-07 23:39:00,24.8,21.0,29.81,NNW,338,0.0,1.1,85,0.00,,,0.00,WUHU216HW,2013-01-08 04:39:00,
2013-01-07 23:44:00,24.7,20.5,29.81,NE,45,0.0,0.4,84,0.00,,,0.00,WUHU216HW,2013-01-08 04:44:00,
2013-01-07 23:49:00,24.8,21.0,29.81,ESE,113,0.4,0.7,85,0.00,,,0.00,WUHU216HW,2013-01-08 04:49:00,
2013-01-07 23:54:00,25.0,21.2,29.81,SSE,158,0.9,0.9,85,0.00,,,0.00,WUHU216HW,2013-01-08 04:54:00,
2013-01-07 23:59:00,25.2,21.3,29.81,SW,225,0.0,0.9,85,0.00,,,0.00,WUHU216HW,2013-01-08 04:59:00,